Epoch 2005 Aug. 18.0 TT = JDT 2453600.5
T 2005 Aug. 22.68123 TT MPC
q 1.6274058 (2000.0) P Q
n 0.00641341 Peri. 207.76465 +0.98451735 -0.09719509
a 28.6908547 Node 156.41190 +0.10741667 +0.99215876
e 0.9432779 Incl. 21.37903 -0.13851807 +0.07857553
P 153.68